Location: *
(45.1961°N, 1.9694°E)
Time: 08:51:31
(UTC+00:00)

DMSP B5D2-2 - Pass Details

Date: 25 August 2019
Orbit: 791 x 806 km, 98.4° (Epoch: 18 September)

Event Time Altitude Azimuth Distance (km) Brightness Sun altitude
Rises 20:52:41 0° 10° (N) 3,314 7.7 -20.8°
Reaches altitude 10° 20:55:02 10° 8° (N) 2,382 7.0 -21.1°
Maximum altitude 21:00:14 65° 288° (WNW) 880 4.4 -21.8°
Drops below altitude 10° 21:05:26 10° 207° (SSW) 2,375 6.4 -22.5°
Enters shadow 21:05:47 - 207° (SSW) 2,510 6.5 -22.5°
